Flag for U.S.A. Weather past 2 weeks in Naples, Florida, U.S.A.

Now
79 °F

Passing clouds.


Feels Like: 81 °F
Forecast: 72 / 85 °F
Wind: 12 mph from East

Location: Naples Municipal

Current Time: May 28, 2015 at 10:35:56 PM

Latest Report: May 28, 2015 at 9:53 PM


Visibility: 10 mi

Pressure: 30.06 "Hg

Humidity: 65%

Dew point: 66 °F

Location of NaplesLocation

Historic Weather in Naples — Graph

°F

Naples temperature yesterday

Maximum temperature yesterday: 92 °F (at 4:53 PM)
Minimum temperature yesterday: 73 °F (at 6:53 AM)
Average temperature yesterday: 82 °F

Past Weeks' High & Low Weather Summary

 TemperatureHumidityPressure
High92 °F (May 24, 2:53 PM)97% (May 14, 1:53 AM)30.19 "Hg (May 14, 1:53 AM)
Low70 °F (May 28, 6:53 AM)34% (May 28, 3:53 PM)29.94 "Hg (May 20, 6:53 PM)
Average80 °F74%30.09 "Hg
* Reported May 13 8:53 PM — May 28 8:53 PM, Naples, Weather by CustomWeather, © 2015

Note: Actual official high and low records may vary slightly from our data, if they occured in-between our weather recording intervals... More about our weather records

Advertising

Naples weather history for previous 24 hours

 ConditionsComfort  
Time TempWeatherWind HumidityBarometerVisibility
8:53 PM
Thu, May 28
80 °FScattered clouds.12 mph62%30.04 "Hg10 mi
7:53 PM82 °FSunny.13 mph58%30.03 "Hg10 mi
6:53 PM85 °FSunny.15 mph50%30.02 "Hg10 mi
5:53 PM88 °FOvercast.13 mph48%30.01 "Hg10 mi
4:53 PM88 °FScattered clouds.15 mph42%30.02 "Hg10 mi
3:53 PM90 °FScattered clouds.13 mph34%30.03 "Hg10 mi
2:53 PM88 °FScattered clouds.15 mph38%30.05 "Hg10 mi
1:53 PM88 °FScattered clouds.15 mph42%30.06 "Hg10 mi
12:53 PM84 °FBroken clouds.10 mph49%30.09 "Hg10 mi
11:53 AM84 °FBroken clouds.12 mph51%30.10 "Hg10 mi
10:53 AM82 °FScattered clouds.10 mph53%30.11 "Hg10 mi
9:53 AM81 °FSunny.16 mph56%30.09 "Hg10 mi
8:53 AM78 °FSunny.8 mph64%30.10 "Hg10 mi
7:53 AM74 °FSunny.7 mph76%30.08 "Hg10 mi
6:53 AM70 °FClear.6 mph87%30.07 "Hg10 mi
5:53 AM71 °FClear.6 mph87%30.06 "Hg10 mi
4:53 AM72 °FClear.5 mph84%30.06 "Hg10 mi
3:53 AM73 °FClear.8 mph81%30.05 "Hg10 mi
2:53 AM73 °FClear.9 mph81%30.06 "Hg10 mi
1:53 AM74 °FClear.9 mph79%30.07 "Hg10 mi
12:53 AM75 °FClear.14 mph76%30.08 "Hg10 mi
11:53 PM
Wed, May 27
76 °FClear.14 mph74%30.09 "Hg10 mi
10:53 PM79 °FClear.15 mph62%30.09 "Hg10 mi
Weather by CustomWeather, © 2015

See weather overviewHow to use our weather pages